When you browse on this site, cookies collect data to enhance your experience and personalize the content and advertising you see.
Visit our Privacy Policy to learn more. By continuing to use the site, you agree to this use of cookies and data.
  • In Czech Republic
  • List of Countries
  • For 7 days
  • Water Temperature
  • Weather Map
  • Weather Widgets
  • user-avatar
    Login

    Hourly Weather Goncha

    Today, 19 August, Monday

    Time Temperature Precipitation Wind Pressure Humidity
    00:00 +15°C° 0 mm 1 mps 747 mmHg 78%
    01:00 +15°C° 0 mm 1 mps 747 mmHg 80%
    02:00 +15°C° 0 mm 2 mps 748 mmHg 80%
    03:00 +15°C° 0 mm 2 mps 748 mmHg 83%
    04:00 +14°C° 0 mm 2 mps 748 mmHg 86%
    05:00 +14°C° 0 mm 2 mps 748 mmHg 89%
    06:00 +16°C° 0 mm 2 mps 748 mmHg 84%
    07:00 +18°C° 0 mm 3 mps 748 mmHg 79%
    08:00 +20°C° 0 mm 3 mps 748 mmHg 73%
    09:00 +22°C° 0 mm 3 mps 748 mmHg 68%
    10:00 +23°C° 0 mm 4 mps 749 mmHg 63%
    11:00 +26°C° 0 mm 4 mps 749 mmHg 58%
    12:00 +27°C° 0 mm 4 mps 749 mmHg 57%
    13:00 +28°C° 0 mm 4 mps 749 mmHg 56%
    14:00 +28°C° 0 mm 4 mps 749 mmHg 55%
    15:00 +28°C° 0 mm 3 mps 749 mmHg 58%
    16:00 +28°C° 0 mm 3 mps 749 mmHg 61%
    17:00 +28°C° 0 mm 2 mps 749 mmHg 64%
    18:00 +26°C° 0 mm 2 mps 749 mmHg 70%
    19:00 +24°C° 0 mm 2 mps 749 mmHg 76%
    20:00 +23°C° 0 mm 2 mps 749 mmHg 82%
    21:00 +21°C° 0 mm 2 mps 749 mmHg 83%
    22:00 +20°C° 0 mm 2 mps 749 mmHg 84%
    23:00 +20°C° 0 mm 2 mps 749 mmHg 85%

    Tomorrow, 20 August, Tuesday

    Time Temperature Precipitation Wind Pressure Humidity
    00:00 +19°C° 0.2 mm 2 mps 749 mmHg 87%
    01:00 +19°C° 0.2 mm 2 mps 750 mmHg 88%
    02:00 +19°C° 0.2 mm 2 mps 750 mmHg 89%
    03:00 +19°C° 0.2 mm 2 mps 750 mmHg 90%
    04:00 +18°C° 0.2 mm 2 mps 750 mmHg 92%
    05:00 +19°C° 0.2 mm 1 mps 750 mmHg 93%
    06:00 +19°C° 0 mm 2 mps 750 mmHg 89%
    07:00 +21°C° 0 mm 2 mps 750 mmHg 84%
    08:00 +23°C° 0 mm 2 mps 751 mmHg 80%
    09:00 +24°C° 0.1 mm 2 mps 751 mmHg 75%
    10:00 +26°C° 0.1 mm 2 mps 751 mmHg 70%
    11:00 +28°C° 0.1 mm 2 mps 751 mmHg 65%
    12:00 +28°C° 0.1 mm 2 mps 751 mmHg 63%
    13:00 +29°C° 0.1 mm 2 mps 751 mmHg 61%
    14:00 +30°C° 0.1 mm 2 mps 752 mmHg 59%
    15:00 +29°C° 0.7 mm 2 mps 752 mmHg 64%
    16:00 +28°C° 0.7 mm 2 mps 751 mmHg 70%
    17:00 +28°C° 0.7 mm 1 mps 751 mmHg 75%
    18:00 +26°C° 0.6 mm 1 mps 752 mmHg 80%
    19:00 +24°C° 0.6 mm 1 mps 752 mmHg 86%
    20:00 +23°C° 0.6 mm 1 mps 752 mmHg 91%
    21:00 +22°C° 0.1 mm 1 mps 752 mmHg 92%
    22:00 +22°C° 0.1 mm 1 mps 752 mmHg 93%
    23:00 +21°C° 0.1 mm 1 mps 752 mmHg 94%

    Day after tomorrow, 21 August, Wednesday

    Time Temperature Precipitation Wind Pressure Humidity
    00:00 +21°C° 0 mm 1 mps 752 mmHg 94%
    01:00 +21°C° 0 mm 1 mps 752 mmHg 94%
    02:00 +20°C° 0 mm 1 mps 752 mmHg 94%
    03:00 +20°C° 0 mm 1 mps 752 mmHg 94%
    04:00 +20°C° 0 mm 1 mps 752 mmHg 94%
    05:00 +20°C° 0 mm 1 mps 752 mmHg 94%
    06:00 +21°C° 0 mm 1 mps 752 mmHg 91%
    07:00 +22°C° 0 mm 1 mps 752 mmHg 88%
    08:00 +23°C° 0 mm 2 mps 753 mmHg 85%
    09:00 +24°C° 0 mm 2 mps 752 mmHg 78%
    10:00 +26°C° 0 mm 3 mps 752 mmHg 71%
    11:00 +27°C° 0 mm 3 mps 752 mmHg 64%
    12:00 +28°C° 0.3 mm 3 mps 752 mmHg 61%
    13:00 +29°C° 0.3 mm 4 mps 752 mmHg 58%
    14:00 +30°C° 0.3 mm 4 mps 751 mmHg 55%
    15:00 +29°C° 0.1 mm 3 mps 751 mmHg 58%
    16:00 +29°C° 0.1 mm 3 mps 751 mmHg 61%
    17:00 +29°C° 0.1 mm 2 mps 750 mmHg 64%
    18:00 +27°C° 0.6 mm 2 mps 750 mmHg 70%
    19:00 +25°C° 0.6 mm 2 mps 750 mmHg 77%
    20:00 +23°C° 0.6 mm 2 mps 751 mmHg 84%
    21:00 +22°C° 0.5 mm 1 mps 751 mmHg 84%
    22:00 +22°C° 0.5 mm 1 mps 751 mmHg 85%
    23:00 +21°C° 0.5 mm 1 mps 751 mmHg 86%

    22 August, Thursday

    Time Temperature Precipitation Wind Pressure Humidity
    00:00 +21°C° 0.7 mm 1 mps 751 mmHg 86%
    01:00 +21°C° 0.7 mm 1 mps 751 mmHg 87%
    02:00 +20°C° 0.7 mm 1 mps 751 mmHg 87%
    03:00 +20°C° 1.4 mm 1 mps 751 mmHg 90%
    04:00 +20°C° 1.4 mm 1 mps 751 mmHg 93%
    05:00 +20°C° 1.4 mm 1 mps 750 mmHg 95%
    06:00 +19°C° 0.4 mm 2 mps 751 mmHg 95%
    07:00 +19°C° 0.4 mm 2 mps 751 mmHg 95%
    08:00 +19°C° 0.4 mm 3 mps 751 mmHg 94%
    09:00 +19°C° 0.1 mm 3 mps 751 mmHg 93%
    10:00 +19°C° 0.1 mm 3 mps 752 mmHg 92%
    11:00 +19°C° 0.1 mm 3 mps 752 mmHg 91%
    12:00 +19°C° 0 mm 3 mps 752 mmHg 90%
    13:00 +19°C° 0 mm 3 mps 752 mmHg 89%
    14:00 +19°C° 0 mm 4 mps 752 mmHg 89%
    15:00 +19°C° 0 mm 4 mps 752 mmHg 88%
    16:00 +19°C° 0 mm 4 mps 752 mmHg 87%
    17:00 +19°C° 0 mm 4 mps 752 mmHg 86%
    18:00 +19°C° 0 mm 3 mps 753 mmHg 87%
    19:00 +18°C° 0 mm 3 mps 753 mmHg 89%
    20:00 +18°C° 0 mm 2 mps 753 mmHg 90%
    21:00 +17°C° 0 mm 2 mps 753 mmHg 91%
    22:00 +17°C° 0 mm 2 mps 753 mmHg 92%
    23:00 +17°C° 0 mm 2 mps 753 mmHg 93%

    23 August, Friday

    Time Temperature Precipitation Wind Pressure Humidity
    00:00 +16°C° 0 mm 2 mps 753 mmHg 93%
    01:00 +15°C° 0 mm 2 mps 753 mmHg 94%
    02:00 +15°C° 0 mm 2 mps 754 mmHg 95%
    03:00 +14°C° 0 mm 2 mps 754 mmHg 95%
    04:00 +14°C° 0 mm 2 mps 753 mmHg 95%
    05:00 +14°C° 0 mm 2 mps 753 mmHg 95%
    06:00 +14°C° 0 mm 3 mps 754 mmHg 90%
    07:00 +17°C° 0 mm 3 mps 754 mmHg 85%
    08:00 +18°C° 0 mm 3 mps 754 mmHg 80%
    09:00 +19°C° 0 mm 3 mps 754 mmHg 74%
    10:00 +21°C° 0 mm 3 mps 754 mmHg 67%
    11:00 +22°C° 0 mm 3 mps 755 mmHg 61%
    12:00 +24°C° 0 mm 3 mps 755 mmHg 59%
    13:00 +24°C° 0 mm 3 mps 755 mmHg 57%
    14:00 +23°C° 0 mm 4 mps 755 mmHg 56%
    15:00 +24°C° 0 mm 3 mps 754 mmHg 57%
    16:00 +22°C° 0 mm 3 mps 754 mmHg 59%
    17:00 +22°C° 0 mm 3 mps 754 mmHg 61%
    18:00 +20°C° 0 mm 2 mps 755 mmHg 67%
    19:00 +18°C° 0 mm 2 mps 755 mmHg 72%
    20:00 +16°C° 0 mm 1 mps 755 mmHg 78%
    21:00 +15°C° 0 mm 1 mps 755 mmHg 79%
    22:00 +15°C° 0 mm 1 mps 755 mmHg 80%
    23:00 +14°C° 0 mm 1 mps 756 mmHg 81%

    24 August, Saturday

    Time Temperature Precipitation Wind Pressure Humidity
    00:00 +14°C° 0 mm 1 mps 756 mmHg 83%
    01:00 +14°C° 0 mm 1 mps 756 mmHg 84%
    02:00 +13°C° 0 mm 1 mps 756 mmHg 86%
    03:00 +13°C° 0 mm 1 mps 756 mmHg 87%
    04:00 +13°C° 0 mm 1 mps 756 mmHg 89%
    05:00 +12°C° 0 mm 1 mps 756 mmHg 90%
    06:00 +14°C° 0 mm 1 mps 756 mmHg 84%
    07:00 +16°C° 0 mm 1 mps 756 mmHg 77%
    08:00 +19°C° 0 mm 1 mps 756 mmHg 71%
    09:00 +20°C° 0 mm 1 mps 757 mmHg 65%
    10:00 +21°C° 0 mm 2 mps 757 mmHg 60%
    11:00 +23°C° 0 mm 2 mps 757 mmHg 54%
    12:00 +23°C° 0 mm 2 mps 757 mmHg 52%
    13:00 +24°C° 0 mm 2 mps 756 mmHg 50%
    14:00 +24°C° 0 mm 2 mps 756 mmHg 48%
    15:00 +24°C° 0 mm 2 mps 756 mmHg 52%
    16:00 +24°C° 0 mm 2 mps 756 mmHg 55%
    17:00 +23°C° 0 mm 2 mps 756 mmHg 59%
    18:00 +20°C° 0 mm 2 mps 756 mmHg 65%
    19:00 +18°C° 0 mm 2 mps 756 mmHg 71%
    20:00 +17°C° 0 mm 2 mps 756 mmHg 78%
    21:00 +16°C° 0 mm 2 mps 756 mmHg 79%
    22:00 +15°C° 0 mm 2 mps 756 mmHg 81%
    23:00 +15°C° 0 mm 2 mps 756 mmHg 83%
    Show more